Pipestone, MN

12:03 PM CST on February 24, 2017 (GMT -0600)
Pipestone Municipal

Weather History for KPQN - May, 2014

Change the Weather History Date:

Wednesday, May 14, 2014

  Actual Average Record
Temperature  
Mean Temperature 45 °F -  
Max Temperature 55 °F 64 °F 93 °F (2001)
Min Temperature 35 °F 44 °F 30 °F (2004)
Degree Days  
Heating Degree Days 20    
Moisture  
Dew Point 31 °F    
Average Humidity 61    
Maximum Humidity 87    
Minimum Humidity 38    
Precipitation  
Precipitation 0.00 in - - ()
Sea Level Pressure  
Sea Level Pressure 30.21 in    
Wind  
Wind Speed 6 mph (North)    
Max Wind Speed 17 mph    
Max Gust Speed 26 mph    
Visibility 10 miles    
Events      
Averages and records for this station are not official NWS values.
T = Trace of Precipitation, MM = Missing Value Source: NWS Daily Summary

Daily Weather History Graph

Daily Weather History Graph

Search for Another Location

Airport or City:

Trip Planner

Search our weather history database for the weather conditions in past years. The results will help you decide how hot, cold, wet, or windy it might be!

Date:

Astronomy

May. 14, 2014 Rise Set
Actual Time 6:00 AM CDT 8:43 PM CDT
Civil Twilight 5:27 AM CDT 9:16 PM CDT
Nautical Twilight 4:45 AM CDT 9:59 PM CDT
Astronomical Twilight 3:56 AM CDT 10:47 PM CDT
Moon 8:49 PM CDT (5/14) 6:01 AM CDT (5/14)
Length of Visible Light 15h 49m
Length of Day
14h 43m
Full, 100% of the Moon is Illuminated
May 14
Full
May 14
Full
May 21
Last Quarter
May 28
New
Jun 5
First Quarter

Hourly Weather History & Observations

Time (CDT) Temp. Windchill Dew Point Humidity Pressure Visibility Wind Dir Wind Speed Gust Speed Precip Events Conditions
12:13 AM 35.6 °F 32.8 °F 32.0 °F 87% 30.23 in 10.0 mi SSW 3.5 mph - N/A   Clear
12:33 AM 37.4 °F 34.9 °F 32.0 °F 81% 30.24 in 10.0 mi SW 3.5 mph - N/A   Clear
12:53 AM 37.4 °F 34.9 °F 32.0 °F 81% 30.24 in 10.0 mi WSW 3.5 mph - N/A   Clear
1:13 AM 35.6 °F - 32.0 °F 87% 30.24 in 10.0 mi Calm Calm - N/A   Clear
1:33 AM 35.6 °F 32.8 °F 32.0 °F 87% 30.24 in 10.0 mi SW 3.5 mph - N/A   Clear
1:53 AM 37.4 °F 34.9 °F 32.0 °F 81% 30.24 in 10.0 mi WSW 3.5 mph - N/A   Clear
2:13 AM 37.4 °F 34.9 °F 32.0 °F 81% 30.23 in 10.0 mi WSW 3.5 mph - N/A   Clear
2:33 AM 37.4 °F 34.9 °F 32.0 °F 81% 30.23 in 10.0 mi SW 3.5 mph - N/A   Clear
2:53 AM 37.4 °F 34.9 °F 32.0 °F 81% 30.23 in 10.0 mi SW 3.5 mph - N/A   Scattered Clouds
3:13 AM 35.6 °F - 30.2 °F 81% 30.23 in 10.0 mi Calm Calm - N/A   Scattered Clouds
3:33 AM 35.6 °F 32.8 °F 32.0 °F 87% 30.23 in 10.0 mi SW 3.5 mph - N/A   Scattered Clouds
3:53 AM 35.6 °F 32.8 °F 32.0 °F 87% 30.22 in 10.0 mi SW 3.5 mph - N/A   Clear
4:13 AM 35.6 °F 32.8 °F 30.2 °F 81% 30.22 in 10.0 mi SW 3.5 mph - N/A   Clear
4:33 AM 35.6 °F 32.8 °F 32.0 °F 87% 30.22 in 10.0 mi SW 3.5 mph - N/A   Clear
4:53 AM 35.6 °F 32.8 °F 30.2 °F 81% 30.21 in 10.0 mi SW 3.5 mph - N/A   Clear
5:13 AM 35.6 °F - 30.2 °F 81% 30.21 in 10.0 mi Calm Calm - N/A   Clear
5:33 AM 35.6 °F 30.7 °F 30.2 °F 81% 30.21 in 10.0 mi SW 5.8 mph - N/A   Clear
5:53 AM 37.4 °F 34.9 °F 32.0 °F 81% 30.20 in 10.0 mi West 3.5 mph - N/A   Clear
6:13 AM 35.6 °F - 30.2 °F 81% 30.21 in 10.0 mi Calm Calm - N/A   Clear
6:33 AM 35.6 °F - 30.2 °F 81% 30.21 in 10.0 mi Calm Calm - N/A   Clear
6:53 AM 35.6 °F - 30.2 °F 81% 30.20 in 10.0 mi Calm Calm - N/A   Clear
7:13 AM 37.4 °F - 32.0 °F 81% 30.20 in 10.0 mi Calm Calm - N/A   Clear
7:34 AM 39.2 °F - 35.6 °F 87% 30.20 in 10.0 mi Calm Calm - N/A   Clear
7:53 AM 42.8 °F - 35.6 °F 76% 30.21 in 10.0 mi Calm Calm - N/A   Clear
8:13 AM 42.8 °F 41.1 °F 33.8 °F 70% 30.21 in 10.0 mi West 3.5 mph - N/A   Clear
8:33 AM 44.6 °F 43.1 °F 35.6 °F 71% 30.21 in 10.0 mi West 3.5 mph - N/A   Clear
8:53 AM 46.4 °F 44.3 °F 33.8 °F 62% 30.21 in 10.0 mi WNW 4.6 mph - N/A   Clear
10:33 AM 53.6 °F - 30.2 °F 41% 30.20 in 10.0 mi NNW 11.5 mph 17.3 mph N/A   Clear
10:53 AM 55.4 °F - 32.0 °F 41% 30.20 in 10.0 mi North 8.1 mph - N/A   Clear
11:13 AM 55.4 °F - 30.2 °F 38% 30.20 in 10.0 mi North 8.1 mph - N/A   Scattered Clouds
11:33 AM 55.4 °F - 30.2 °F 38% 30.20 in 10.0 mi North 8.1 mph - N/A   Clear
11:53 AM 55.4 °F - 30.2 °F 38% 30.20 in 10.0 mi NNE 5.8 mph - N/A   Scattered Clouds
12:13 PM 55.4 °F - 35.6 °F 47% 30.20 in 10.0 mi NE 8.1 mph 16.1 mph N/A   Clear
12:33 PM 55.4 °F - 35.6 °F 47% 30.20 in 10.0 mi NE 12.7 mph 19.6 mph N/A   Clear
12:53 PM 55.4 °F - 33.8 °F 44% 30.20 in 10.0 mi NNE 10.4 mph - N/A   Scattered Clouds
1:13 PM 55.4 °F - 35.6 °F 47% 30.19 in 10.0 mi NNE 12.7 mph 17.3 mph N/A   Clear
1:33 PM 55.4 °F - 33.8 °F 44% 30.20 in 10.0 mi NNE 11.5 mph 17.3 mph N/A   Clear
1:53 PM 55.4 °F - 33.8 °F 44% 30.19 in 10.0 mi NE 15.0 mph 19.6 mph N/A   Scattered Clouds
2:13 PM 55.4 °F - 33.8 °F 44% 30.19 in 10.0 mi North 13.8 mph 21.9 mph N/A   Scattered Clouds
2:33 PM 55.4 °F - 33.8 °F 44% 30.19 in 10.0 mi North 9.2 mph 18.4 mph N/A   Scattered Clouds
2:53 PM 55.4 °F - 30.2 °F 38% 30.19 in 10.0 mi NNE 12.7 mph 26.5 mph N/A   Scattered Clouds
3:13 PM 55.4 °F - 32.0 °F 41% 30.19 in 10.0 mi NNE 12.7 mph 21.9 mph N/A   Scattered Clouds
3:33 PM 55.4 °F - 32.0 °F 41% 30.19 in 10.0 mi NNE 16.1 mph 21.9 mph N/A   Scattered Clouds
4:13 PM 51.8 °F - 30.2 °F 44% 30.20 in 10.0 mi NNE 15.0 mph 23.0 mph N/A   Scattered Clouds
4:33 PM 53.6 °F - 30.2 °F 41% 30.20 in 10.0 mi North 13.8 mph 19.6 mph N/A   Scattered Clouds
4:53 PM 51.8 °F - 28.4 °F 41% 30.20 in 10.0 mi North 12.7 mph 17.3 mph N/A   Scattered Clouds
5:13 PM 51.8 °F - 26.6 °F 38% 30.19 in 10.0 mi NNE 12.7 mph 18.4 mph N/A   Scattered Clouds
5:33 PM 51.8 °F - 26.6 °F 38% 30.20 in 10.0 mi NNE 13.8 mph 20.7 mph N/A   Mostly Cloudy
5:53 PM 51.8 °F - 26.6 °F 38% 30.19 in 10.0 mi North 13.8 mph 25.3 mph N/A   Scattered Clouds
6:13 PM 51.8 °F - 26.6 °F 38% 30.19 in 10.0 mi NNE 16.1 mph 26.5 mph N/A   Scattered Clouds
6:33 PM 50.0 °F - 26.6 °F 40% 30.20 in 10.0 mi NNE 15.0 mph 20.7 mph N/A   Clear
6:54 PM 50.0 °F - 26.6 °F 40% 30.20 in 10.0 mi NNE 13.8 mph 20.7 mph N/A   Clear
7:13 PM 48.2 °F - 26.6 °F 43% 30.20 in 10.0 mi North 15.0 mph 20.7 mph N/A   Scattered Clouds
7:33 PM 46.4 °F 39.5 °F 26.6 °F 46% 30.21 in 10.0 mi NNE 17.3 mph 23.0 mph N/A   Scattered Clouds
7:54 PM 46.4 °F 40.7 °F 26.6 °F 46% 30.22 in 10.0 mi NNE 12.7 mph 21.9 mph N/A   Scattered Clouds
8:13 PM 46.4 °F 39.5 °F 26.6 °F 46% 30.23 in 10.0 mi NNE 17.3 mph 23.0 mph N/A   Clear
8:53 PM 42.8 °F 37.0 °F 28.4 °F 57% 30.24 in 10.0 mi NNE 10.4 mph 17.3 mph N/A   Scattered Clouds
9:13 PM 42.8 °F 37.0 °F 28.4 °F 57% 30.24 in 10.0 mi NNE 10.4 mph - N/A   Clear
9:33 PM 42.8 °F 37.0 °F 28.4 °F 57% 30.24 in 10.0 mi NNE 10.4 mph - N/A   Clear
10:13 PM 39.2 °F 33.6 °F 28.4 °F 65% 30.25 in 10.0 mi NNE 8.1 mph - N/A   Clear
10:33 PM 39.2 °F 34.2 °F 28.4 °F 65% 30.25 in 10.0 mi NNE 6.9 mph - N/A   Clear
10:53 PM 39.2 °F 33.6 °F 28.4 °F 65% 30.25 in 10.0 mi NNE 8.1 mph - N/A   Clear
11:13 PM 37.4 °F 31.4 °F 28.4 °F 70% 30.24 in 10.0 mi NNE 8.1 mph - N/A   Clear
11:33 PM 37.4 °F 32.8 °F 28.4 °F 70% 30.24 in 10.0 mi NNE 5.8 mph - N/A   Clear
11:53 PM 35.6 °F 30.7 °F 28.4 °F 75% 30.24 in 10.0 mi NNE 5.8 mph - N/A   Clear